Time,TemperatureF,DewpointF,PressureIn,WindDirection,WindDirectionDegrees,WindSpeedMPH,WindSpeedGustMPH,Humidity,HourlyPrecipIn,Conditions,Clouds,dailyrainin,SoftwareType,DateUTC
2013-07-18 00:01:00,85.9,68.4,29.43,North,360,2.0,6.0,56,0.00,,---,0.00,VWS V12.08,2013-07-18 04:01:00,
2013-07-18 00:02:00,85.9,68.4,29.43,North,360,0.0,6.0,56,0.00,,---,0.00,VWS V12.08,2013-07-18 04:02:00,
2013-07-18 00:04:00,85.7,67.7,29.43,North,360,0.0,6.0,55,0.00,,---,0.00,VWS V12.08,2013-07-18 04:04:00,
2013-07-18 00:05:00,85.7,67.7,29.43,North,360,1.0,6.0,55,0.00,,---,0.00,VWS V12.08,2013-07-18 04:05:00,
2013-07-18 00:09:00,85.9,67.9,29.43,North,360,1.0,6.0,55,0.00,,---,0.00,VWS V12.08,2013-07-18 04:09:00,
2013-07-18 00:14:00,86.1,68.1,29.43,North,360,0.0,6.0,55,0.00,,---,0.00,VWS V12.08,2013-07-18 04:14:00,
2013-07-18 00:19:00,85.9,67.9,29.43,North,360,0.0,6.0,55,0.00,,---,0.00,VWS V12.08,2013-07-18 04:19:00,
2013-07-18 00:24:00,85.7,67.2,29.43,North,360,1.0,7.0,54,0.00,,---,0.00,VWS V12.08,2013-07-18 04:24:00,
2013-07-18 00:29:00,85.7,67.7,29.43,North,360,0.0,4.0,55,0.00,,---,0.00,VWS V12.08,2013-07-18 04:29:00,
2013-07-18 00:34:00,85.7,68.7,29.43,North,360,4.0,4.0,57,0.00,,---,0.00,VWS V12.08,2013-07-18 04:34:00,
2013-07-18 00:39:00,85.7,68.2,29.43,North,360,0.0,4.0,56,0.00,,---,0.00,VWS V12.08,2013-07-18 04:39:00,
2013-07-18 00:44:00,85.5,68.5,29.43,North,360,0.0,7.0,57,0.00,,---,0.00,VWS V12.08,2013-07-18 04:44:00,
2013-07-18 00:49:00,85.7,68.2,29.43,North,360,0.0,7.0,56,0.00,,---,0.00,VWS V12.08,2013-07-18 04:49:00,
2013-07-18 00:54:00,85.7,68.2,29.43,North,360,0.0,7.0,56,0.00,,---,0.00,VWS V12.08,2013-07-18 04:54:00,
2013-07-18 00:59:00,85.5,67.5,29.43,North,360,2.0,2.0,55,0.00,,---,0.00,VWS V12.08,2013-07-18 04:59:00,
2013-07-18 01:04:00,85.3,67.8,29.43,North,360,2.0,8.0,56,0.00,,---,0.00,VWS V12.08,2013-07-18 05:04:00,
2013-07-18 01:09:00,85.1,68.2,29.43,North,360,0.0,8.0,57,0.00,,---,0.00,VWS V12.08,2013-07-18 05:09:00,
2013-07-18 01:14:00,85.1,68.2,29.43,North,360,0.0,8.0,57,0.00,,---,0.00,VWS V12.08,2013-07-18 05:14:00,
2013-07-18 01:19:00,85.1,67.7,29.43,North,360,4.0,11.0,56,0.00,,---,0.00,VWS V12.08,2013-07-18 05:19:00,
2013-07-18 01:24:00,85.1,68.2,29.43,North,360,3.0,11.0,57,0.00,,---,0.00,VWS V12.08,2013-07-18 05:24:00,
2013-07-18 01:29:00,84.9,68.5,29.43,North,360,0.0,5.0,58,0.00,,---,0.00,VWS V12.08,2013-07-18 05:29:00,
2013-07-18 01:34:00,84.7,68.3,29.43,North,360,6.0,10.0,58,0.00,,---,0.00,VWS V12.08,2013-07-18 05:34:00,
2013-07-18 01:39:00,84.5,68.1,29.43,North,360,0.0,10.0,58,0.00,,---,0.00,VWS V12.08,2013-07-18 05:39:00,
2013-07-18 01:44:00,84.5,68.1,29.42,North,360,3.0,10.0,58,0.00,,---,0.00,VWS V12.08,2013-07-18 05:44:00,
2013-07-18 01:49:00,84.5,68.1,29.42,North,360,2.0,10.0,58,0.00,,---,0.00,VWS V12.08,2013-07-18 05:49:00,
2013-07-18 01:54:00,84.5,68.1,29.42,North,360,0.0,10.0,58,0.00,,---,0.00,VWS V12.08,2013-07-18 05:54:00,
2013-07-18 01:59:00,84.7,67.8,29.43,North,360,0.0,3.0,57,0.00,,---,0.00,VWS V12.08,2013-07-18 05:59:00,
2013-07-18 02:04:00,84.7,67.8,29.43,North,360,2.0,5.0,57,0.00,,---,0.00,VWS V12.08,2013-07-18 06:04:00,
2013-07-18 02:09:00,84.5,68.6,29.43,North,360,1.0,6.0,59,0.00,,---,0.00,VWS V12.08,2013-07-18 06:09:00,
2013-07-18 02:14:00,84.5,67.6,29.42,North,360,0.0,6.0,57,0.00,,---,0.00,VWS V12.08,2013-07-18 06:14:00,
2013-07-18 02:19:00,84.5,68.6,29.42,North,360,0.0,7.0,59,0.00,,---,0.00,VWS V12.08,2013-07-18 06:19:00,
2013-07-18 02:24:00,84.5,68.1,29.42,North,360,2.0,7.0,58,0.00,,---,0.00,VWS V12.08,2013-07-18 06:24:00,
2013-07-18 02:29:00,84.7,67.8,29.41,North,360,0.0,4.0,57,0.00,,---,0.00,VWS V12.08,2013-07-18 06:29:00,
2013-07-18 02:34:00,84.9,68.0,29.41,North,360,1.0,4.0,57,0.00,,---,0.00,VWS V12.08,2013-07-18 06:34:00,
2013-07-18 02:39:00,84.9,67.5,29.41,North,360,1.0,4.0,56,0.00,,---,0.00,VWS V12.08,2013-07-18 06:39:00,
2013-07-18 02:44:00,84.9,67.5,29.40,North,360,0.0,4.0,56,0.00,,---,0.00,VWS V12.08,2013-07-18 06:44:00,
2013-07-18 02:49:00,84.9,67.5,29.40,North,360,0.0,4.0,56,0.00,,---,0.00,VWS V12.08,2013-07-18 06:49:00,
2013-07-18 02:54:00,85.1,67.7,29.40,North,360,3.0,5.0,56,0.00,,---,0.00,VWS V12.08,2013-07-18 06:54:00,
2013-07-18 02:59:00,85.3,67.3,29.40,North,360,0.0,1.0,55,0.00,,---,0.00,VWS V12.08,2013-07-18 06:59:00,
2013-07-18 03:04:00,85.3,67.3,29.40,North,360,2.0,2.0,55,0.00,,---,0.00,VWS V12.08,2013-07-18 07:04:00,
2013-07-18 03:09:00,85.3,67.3,29.40,North,360,0.0,3.0,55,0.00,,---,0.00,VWS V12.08,2013-07-18 07:09:00,
2013-07-18 03:14:00,84.9,67.5,29.40,North,360,1.0,4.0,56,0.00,,---,0.00,VWS V12.08,2013-07-18 07:14:00,
2013-07-18 03:19:00,84.9,66.9,29.40,North,360,2.0,4.0,55,0.00,,---,0.00,VWS V12.08,2013-07-18 07:19:00,
2013-07-18 03:24:00,84.9,66.9,29.40,North,360,1.0,6.0,55,0.00,,---,0.00,VWS V12.08,2013-07-18 07:24:00,
2013-07-18 03:29:00,84.9,66.9,29.40,North,360,1.0,1.0,55,0.00,,---,0.00,VWS V12.08,2013-07-18 07:29:00,
2013-07-18 03:34:00,84.9,67.5,29.40,North,360,0.0,3.0,56,0.00,,---,0.00,VWS V12.08,2013-07-18 07:34:00,
2013-07-18 03:39:00,84.7,67.8,29.40,North,360,2.0,3.0,57,0.00,,---,0.00,VWS V12.08,2013-07-18 07:39:00,
2013-07-18 03:44:00,84.5,67.6,29.40,North,360,1.0,3.0,57,0.00,,---,0.00,VWS V12.08,2013-07-18 07:44:00,
2013-07-18 03:49:00,84.5,67.6,29.40,North,360,1.0,3.0,57,0.00,,---,0.00,VWS V12.08,2013-07-18 07:49:00,
2013-07-18 03:54:00,84.3,67.4,29.40,North,360,0.0,4.0,57,0.00,,---,0.00,VWS V12.08,2013-07-18 07:54:00,
2013-07-18 03:59:00,84.1,67.2,29.39,North,360,1.0,3.0,57,0.00,,---,0.00,VWS V12.08,2013-07-18 07:59:00,
2013-07-18 04:05:00,84.0,67.7,29.39,North,360,0.0,6.0,58,0.00,,---,0.00,VWS V12.08,2013-07-18 08:05:00,
2013-07-18 04:11:00,84.0,67.7,29.39,North,360,2.0,6.0,58,0.00,,---,0.00,VWS V12.08,2013-07-18 08:11:00,
2013-07-18 04:16:00,84.0,67.7,29.39,North,360,1.0,6.0,58,0.00,,---,0.00,VWS V12.08,2013-07-18 08:16:00,
2013-07-18 04:21:00,83.8,67.5,29.39,North,360,1.0,6.0,58,0.00,,---,0.00,VWS V12.08,2013-07-18 08:21:00,
2013-07-18 04:26:00,83.8,68.0,29.39,West,267,1.0,6.0,59,0.00,,---,0.00,VWS V12.08,2013-07-18 08:26:00,
2013-07-18 04:31:00,83.8,67.5,29.39,North,360,1.0,3.0,58,0.00,,---,0.00,VWS V12.08,2013-07-18 08:31:00,
2013-07-18 04:36:00,83.8,68.0,29.39,North,360,3.0,6.0,59,0.00,,---,0.00,VWS V12.08,2013-07-18 08:36:00,
2013-07-18 04:41:00,83.8,68.0,29.39,North,360,1.0,7.0,59,0.00,,---,0.00,VWS V12.08,2013-07-18 08:41:00,
2013-07-18 04:46:00,83.8,67.5,29.39,North,360,2.0,7.0,58,0.00,,---,0.00,VWS V12.08,2013-07-18 08:46:00,
2013-07-18 04:51:00,83.8,68.0,29.39,North,360,0.0,7.0,59,0.00,,---,0.00,VWS V12.08,2013-07-18 08:51:00,
2013-07-18 04:56:00,83.8,67.5,29.39,North,360,5.0,7.0,58,0.00,,---,0.00,VWS V12.08,2013-07-18 08:56:00,
2013-07-18 05:01:00,83.8,67.5,29.40,North,360,4.0,4.0,58,0.00,,---,0.00,VWS V12.08,2013-07-18 09:01:00,
2013-07-18 05:06:00,84.0,68.1,29.40,North,360,2.0,5.0,59,0.00,,---,0.00,VWS V12.08,2013-07-18 09:06:00,
2013-07-18 05:11:00,84.0,67.7,29.40,North,360,0.0,5.0,58,0.00,,---,0.00,VWS V12.08,2013-07-18 09:11:00,
2013-07-18 05:16:00,84.0,67.1,29.40,North,360,0.0,5.0,57,0.00,,---,0.00,VWS V12.08,2013-07-18 09:16:00,
2013-07-18 05:21:00,84.1,67.7,29.40,North,360,1.0,5.0,58,0.00,,---,0.00,VWS V12.08,2013-07-18 09:21:00,
2013-07-18 05:26:00,84.0,67.1,29.40,North,360,0.0,5.0,57,0.00,,---,0.00,VWS V12.08,2013-07-18 09:26:00,
2013-07-18 05:31:00,83.8,67.5,29.40,North,360,1.0,4.0,58,0.00,,---,0.00,VWS V12.08,2013-07-18 09:31:00,
2013-07-18 05:36:00,83.8,68.0,29.40,North,360,3.0,4.0,59,0.00,,---,0.00,VWS V12.08,2013-07-18 09:36:00,
2013-07-18 05:41:00,83.8,68.0,29.40,North,360,0.0,4.0,59,0.00,,---,0.00,VWS V12.08,2013-07-18 09:41:00,
2013-07-18 05:46:00,83.8,67.5,29.40,North,360,2.0,4.0,58,0.00,,---,0.00,VWS V12.08,2013-07-18 09:46:00,
2013-07-18 05:51:00,83.8,68.0,29.40,North,360,1.0,5.0,59,0.00,,---,0.00,VWS V12.08,2013-07-18 09:51:00,
2013-07-18 05:56:00,83.8,67.5,29.40,North,360,3.0,5.0,58,0.00,,---,0.00,VWS V12.08,2013-07-18 09:56:00,
2013-07-18 06:01:00,84.0,67.1,29.40,North,360,0.0,3.0,57,0.00,,---,0.00,VWS V12.08,2013-07-18 10:01:00,
2013-07-18 06:06:00,84.0,67.7,29.40,North,360,0.0,3.0,58,0.00,,---,0.00,VWS V12.08,2013-07-18 10:06:00,
2013-07-18 06:11:00,84.0,67.1,29.40,North,360,5.0,5.0,57,0.00,,---,0.00,VWS V12.08,2013-07-18 10:11:00,
2013-07-18 06:16:00,84.0,67.7,29.40,North,360,0.0,5.0,58,0.00,,---,0.00,VWS V12.08,2013-07-18 10:16:00,
2013-07-18 06:21:00,84.0,67.7,29.40,North,360,0.0,5.0,58,0.00,,---,0.00,VWS V12.08,2013-07-18 10:21:00,
2013-07-18 06:26:00,83.8,67.5,29.40,North,360,0.0,5.0,58,0.00,,---,0.00,VWS V12.08,2013-07-18 10:26:00,
2013-07-18 06:31:00,83.8,67.5,29.40,North,360,1.0,1.0,58,0.00,,---,0.00,VWS V12.08,2013-07-18 10:31:00,
2013-07-18 06:36:00,83.8,68.0,29.40,North,360,2.0,3.0,59,0.00,,---,0.00,VWS V12.08,2013-07-18 10:36:00,
2013-07-18 06:41:00,83.8,67.5,29.40,North,360,0.0,3.0,58,0.00,,---,0.00,VWS V12.08,2013-07-18 10:41:00,
2013-07-18 06:46:00,84.0,67.7,29.41,North,360,2.0,4.0,58,0.00,,---,0.00,VWS V12.08,2013-07-18 10:46:00,
2013-07-18 06:51:00,84.0,68.1,29.41,North,360,1.0,4.0,59,0.00,,---,0.00,VWS V12.08,2013-07-18 10:51:00,
2013-07-18 06:56:00,83.8,67.5,29.41,North,360,0.0,4.0,58,0.00,,---,0.00,VWS V12.08,2013-07-18 10:56:00,
2013-07-18 07:01:00,83.8,68.0,29.41,North,360,0.0,4.0,59,0.00,,---,0.00,VWS V12.08,2013-07-18 11:01:00,
2013-07-18 07:06:00,83.8,68.4,29.41,North,360,1.0,4.0,60,0.00,,---,0.00,VWS V12.08,2013-07-18 11:06:00,
2013-07-18 07:11:00,83.8,68.0,29.41,North,360,1.0,5.0,59,0.00,,---,0.00,VWS V12.08,2013-07-18 11:11:00,
2013-07-18 07:16:00,83.8,68.4,29.41,North,360,1.0,5.0,60,0.00,,---,0.00,VWS V12.08,2013-07-18 11:16:00,
2013-07-18 07:21:00,83.6,68.3,29.41,North,360,2.0,5.0,60,0.00,,---,0.00,VWS V12.08,2013-07-18 11:21:00,
2013-07-18 07:26:00,84.0,68.1,29.41,North,360,1.0,5.0,59,0.00,,---,0.00,VWS V12.08,2013-07-18 11:26:00,
2013-07-18 07:31:00,83.8,68.4,29.41,North,360,0.0,5.0,60,0.00,,---,0.00,VWS V12.08,2013-07-18 11:31:00,
2013-07-18 07:36:00,84.0,68.6,29.41,North,360,0.0,5.0,60,0.00,,---,0.00,VWS V12.08,2013-07-18 11:36:00,
2013-07-18 07:41:00,84.1,68.2,29.41,North,360,3.0,5.0,59,0.00,,---,0.00,VWS V12.08,2013-07-18 11:41:00,
2013-07-18 07:46:00,84.1,68.2,29.42,North,360,4.0,5.0,59,0.00,,---,0.00,VWS V12.08,2013-07-18 11:46:00,
2013-07-18 07:51:00,84.1,68.2,29.42,North,360,0.0,5.0,59,0.00,,---,0.00,VWS V12.08,2013-07-18 11:51:00,
2013-07-18 07:56:00,84.3,68.4,29.42,North,360,0.0,5.0,59,0.00,,---,0.00,VWS V12.08,2013-07-18 11:56:00,
2013-07-18 08:01:00,84.5,68.6,29.42,North,360,0.0,4.0,59,0.00,,---,0.00,VWS V12.08,2013-07-18 12:01:00,
2013-07-18 08:06:00,84.7,68.8,29.42,North,360,1.0,4.0,59,0.00,,---,0.00,VWS V12.08,2013-07-18 12:06:00,
2013-07-18 08:11:00,84.7,68.8,29.42,North,360,2.0,4.0,59,0.00,,---,0.00,VWS V12.08,2013-07-18 12:11:00,
2013-07-18 08:16:00,84.9,69.5,29.42,North,360,2.0,4.0,60,0.00,,---,0.00,VWS V12.08,2013-07-18 12:16:00,
2013-07-18 08:21:00,84.7,70.2,29.42,North,360,0.0,7.0,62,0.00,,---,0.00,VWS V12.08,2013-07-18 12:21:00,
2013-07-18 08:26:00,85.1,69.2,29.42,North,360,0.0,7.0,59,0.00,,---,0.00,VWS V12.08,2013-07-18 12:26:00,
2013-07-18 08:31:00,85.5,70.0,29.42,North,360,2.0,5.0,60,0.00,,---,0.00,VWS V12.08,2013-07-18 12:31:00,
2013-07-18 08:36:00,86.1,69.6,29.42,North,360,0.0,5.0,58,0.00,,---,0.00,VWS V12.08,2013-07-18 12:36:00,
2013-07-18 08:41:00,86.7,69.7,29.42,North,360,0.0,5.0,57,0.00,,---,0.00,VWS V12.08,2013-07-18 12:41:00,
2013-07-18 08:46:00,87.2,69.6,29.42,North,360,4.0,5.0,56,0.00,,---,0.00,VWS V12.08,2013-07-18 12:46:00,
2013-07-18 08:51:00,87.6,70.0,29.42,North,360,0.0,5.0,56,0.00,,---,0.00,VWS V12.08,2013-07-18 12:51:00,
2013-07-18 08:56:00,87.6,70.5,29.42,North,360,4.0,6.0,57,0.00,,---,0.00,VWS V12.08,2013-07-18 12:56:00,
2013-07-18 09:01:00,87.6,69.4,29.42,North,360,0.0,2.0,55,0.00,,---,0.00,VWS V12.08,2013-07-18 13:01:00,
2013-07-18 09:06:00,88.2,69.5,29.42,North,360,0.0,2.0,54,0.00,,---,0.00,VWS V12.08,2013-07-18 13:06:00,
2013-07-18 09:11:00,88.8,70.6,29.42,North,360,1.0,3.0,55,0.00,,---,0.00,VWS V12.08,2013-07-18 13:11:00,
2013-07-18 09:16:00,89.0,70.8,29.42,North,360,0.0,5.0,55,0.00,,---,0.00,VWS V12.08,2013-07-18 13:16:00,
2013-07-18 09:21:00,89.3,69.4,29.42,North,360,0.0,5.0,52,0.00,,---,0.00,VWS V12.08,2013-07-18 13:21:00,
2013-07-18 09:26:00,89.7,70.3,29.42,North,360,1.0,5.0,53,0.00,,---,0.00,VWS V12.08,2013-07-18 13:26:00,
2013-07-18 09:31:00,89.9,69.9,29.42,North,360,1.0,3.0,52,0.00,,---,0.00,VWS V12.08,2013-07-18 13:31:00,
2013-07-18 09:36:00,89.9,70.5,29.42,North,360,3.0,6.0,53,0.00,,---,0.00,VWS V12.08,2013-07-18 13:36:00,
2013-07-18 09:41:00,90.1,70.7,29.42,North,360,1.0,6.0,53,0.00,,---,0.00,VWS V12.08,2013-07-18 13:41:00,
2013-07-18 09:46:00,90.1,70.7,29.42,North,360,0.0,6.0,53,0.00,,---,0.00,VWS V12.08,2013-07-18 13:46:00,
2013-07-18 09:51:00,90.3,70.3,29.42,North,360,0.0,6.0,52,0.00,,---,0.00,VWS V12.08,2013-07-18 13:51:00,
2013-07-18 09:56:00,89.9,70.5,29.42,North,360,0.0,7.0,53,0.00,,---,0.00,VWS V12.08,2013-07-18 13:56:00,
2013-07-18 10:01:00,90.7,71.2,29.42,North,360,1.0,5.0,53,0.00,,---,0.00,VWS V12.08,2013-07-18 14:01:00,
2013-07-18 10:06:00,91.2,71.1,29.42,North,360,6.0,7.0,52,0.00,,---,0.00,VWS V12.08,2013-07-18 14:06:00,
2013-07-18 10:11:00,91.0,69.8,29.42,North,360,0.0,7.0,50,0.00,,---,0.00,VWS V12.08,2013-07-18 14:11:00,
2013-07-18 10:16:00,91.8,69.9,29.41,North,360,1.0,7.0,49,0.00,,---,0.00,VWS V12.08,2013-07-18 14:16:00,
2013-07-18 10:21:00,92.7,69.5,29.41,North,360,3.0,8.0,47,0.00,,---,0.00,VWS V12.08,2013-07-18 14:21:00,
2013-07-18 10:26:00,92.3,70.4,29.41,North,360,3.0,10.0,49,0.00,,---,0.00,VWS V12.08,2013-07-18 14:26:00,
2013-07-18 10:31:00,92.5,69.3,29.41,North,360,2.0,6.0,47,0.00,,---,0.00,VWS V12.08,2013-07-18 14:31:00,
2013-07-18 10:36:00,93.4,69.5,29.41,North,360,2.0,6.0,46,0.00,,---,0.00,VWS V12.08,2013-07-18 14:36:00,
2013-07-18 10:41:00,94.0,69.4,29.41,North,355,5.0,9.0,45,0.00,,---,0.00,VWS V12.08,2013-07-18 14:41:00,
2013-07-18 10:46:00,94.0,68.8,29.41,North,360,2.0,9.0,44,0.00,,---,0.00,VWS V12.08,2013-07-18 14:46:00,
2013-07-18 10:51:00,93.8,68.6,29.41,North,360,6.0,11.0,44,0.00,,---,0.00,VWS V12.08,2013-07-18 14:51:00,
2013-07-18 10:56:00,93.2,68.7,29.41,North,360,4.0,11.0,45,0.00,,---,0.00,VWS V12.08,2013-07-18 14:56:00,
2013-07-18 11:01:00,93.2,69.4,29.41,North,360,0.0,8.0,46,0.00,,---,0.00,VWS V12.08,2013-07-18 15:01:00,
2013-07-18 11:06:00,94.0,68.8,29.41,North,360,5.0,8.0,44,0.00,,---,0.00,VWS V12.08,2013-07-18 15:06:00,
2013-07-18 11:11:00,94.9,67.5,29.41,North,360,0.0,8.0,41,0.00,,---,0.00,VWS V12.08,2013-07-18 15:11:00,
2013-07-18 11:16:00,94.9,68.9,29.41,North,360,0.0,8.0,43,0.00,,---,0.00,VWS V12.08,2013-07-18 15:16:00,
2013-07-18 11:21:00,95.1,69.1,29.41,North,360,2.0,11.0,43,0.00,,---,0.00,VWS V12.08,2013-07-18 15:21:00,
2013-07-18 11:26:00,93.6,69.1,29.41,North,360,11.0,11.0,45,0.00,,---,0.00,VWS V12.08,2013-07-18 15:26:00,
2013-07-18 11:31:00,93.2,67.4,29.40,NNE,29,1.0,9.0,43,0.00,,---,0.00,VWS V12.08,2013-07-18 15:31:00,
2013-07-18 11:36:00,94.3,67.7,29.40,North,360,6.0,9.0,42,0.00,,---,0.00,VWS V12.08,2013-07-18 15:36:00,
2013-07-18 11:41:00,94.9,66.1,29.40,North,360,0.0,9.0,39,0.00,,---,0.00,VWS V12.08,2013-07-18 15:41:00,
2013-07-18 11:46:00,95.9,64.7,29.41,NNE,16,0.0,9.0,36,0.00,,---,0.00,VWS V12.08,2013-07-18 15:46:00,
2013-07-18 11:51:00,96.6,63.7,29.41,North,360,1.0,9.0,34,0.00,,---,0.00,VWS V12.08,2013-07-18 15:51:00,
2013-07-18 11:56:00,96.3,62.5,29.41,North,360,0.0,9.0,33,0.00,,---,0.00,VWS V12.08,2013-07-18 15:56:00,
2013-07-18 12:01:00,97.1,64.1,29.41,North,360,0.0,5.0,34,0.00,,---,0.00,VWS V12.08,2013-07-18 16:01:00,
2013-07-18 12:06:00,97.3,62.5,29.41,North,360,3.0,5.0,32,0.00,,---,0.00,VWS V12.08,2013-07-18 16:06:00,
2013-07-18 12:11:00,97.8,63.8,29.41,North,360,6.0,6.0,33,0.00,,---,0.00,VWS V12.08,2013-07-18 16:11:00,
2013-07-18 12:16:00,97.8,63.8,29.41,North,360,1.0,6.0,33,0.00,,---,0.00,VWS V12.08,2013-07-18 16:16:00,
2013-07-18 12:21:00,98.0,64.0,29.41,North,360,3.0,6.0,33,0.00,,---,0.00,VWS V12.08,2013-07-18 16:21:00,
2013-07-18 12:26:00,97.3,64.3,29.41,North,360,3.0,9.0,34,0.00,,---,0.00,VWS V12.08,2013-07-18 16:26:00,
2013-07-18 12:31:00,96.6,64.5,29.40,North,360,2.0,7.0,35,0.00,,---,0.00,VWS V12.08,2013-07-18 16:31:00,
2013-07-18 12:36:00,97.1,63.2,29.40,North,360,1.0,10.0,33,0.00,,---,0.00,VWS V12.08,2013-07-18 16:36:00,
2013-07-18 12:41:00,96.8,64.7,29.40,NE,36,0.0,12.0,35,0.00,,---,0.00,VWS V12.08,2013-07-18 16:41:00,
2013-07-18 12:46:00,97.1,63.2,29.40,North,360,0.0,12.0,33,0.00,,---,0.00,VWS V12.08,2013-07-18 16:46:00,
2013-07-18 12:51:00,97.8,64.7,29.40,North,360,2.0,12.0,34,0.00,,---,0.00,VWS V12.08,2013-07-18 16:51:00,
2013-07-18 12:56:00,97.8,64.7,29.40,North,360,2.0,12.0,34,0.00,,---,0.00,VWS V12.08,2013-07-18 16:56:00,
2013-07-18 13:01:00,96.6,64.5,29.40,North,360,4.0,10.0,35,0.00,,---,0.00,VWS V12.08,2013-07-18 17:01:00,
2013-07-18 13:06:00,96.8,64.7,29.40,North,360,2.0,10.0,35,0.00,,---,0.00,VWS V12.08,2013-07-18 17:06:00,
2013-07-18 13:11:00,97.8,63.8,29.40,North,360,0.0,10.0,33,0.00,,---,0.00,VWS V12.08,2013-07-18 17:11:00,
2013-07-18 13:16:00,98.0,64.9,29.39,North,360,1.0,10.0,34,0.00,,---,0.00,VWS V12.08,2013-07-18 17:16:00,
2013-07-18 13:21:00,98.2,64.2,29.39,North,360,4.0,10.0,33,0.00,,---,0.00,VWS V12.08,2013-07-18 17:21:00,
2013-07-18 13:26:00,98.5,64.4,29.39,North,360,1.0,10.0,33,0.00,,---,0.00,VWS V12.08,2013-07-18 17:26:00,
2013-07-18 13:31:00,99.0,64.0,29.39,North,360,7.0,7.0,32,0.00,,---,0.00,VWS V12.08,2013-07-18 17:31:00,
2013-07-18 13:36:00,98.5,65.3,29.39,North,360,3.0,7.0,34,0.00,,---,0.00,VWS V12.08,2013-07-18 17:36:00,
2013-07-18 13:41:00,98.5,64.4,29.39,South,188,1.0,7.0,33,0.00,,---,0.00,VWS V12.08,2013-07-18 17:41:00,
2013-07-18 13:46:00,99.2,64.2,29.38,North,360,5.0,7.0,32,0.00,,---,0.00,VWS V12.08,2013-07-18 17:46:00,
2013-07-18 13:51:00,98.7,63.8,29.38,North,360,3.0,10.0,32,0.00,,---,0.00,VWS V12.08,2013-07-18 17:51:00,
2013-07-18 13:56:00,99.0,63.1,29.38,North,360,2.0,10.0,31,0.00,,---,0.00,VWS V12.08,2013-07-18 17:56:00,
2013-07-18 14:01:00,98.2,65.1,29.38,North,360,0.0,12.0,34,0.00,,---,0.00,VWS V12.08,2013-07-18 18:01:00,
2013-07-18 14:06:00,98.7,63.8,29.38,North,360,2.0,12.0,32,0.00,,---,0.00,VWS V12.08,2013-07-18 18:06:00,
2013-07-18 14:11:00,99.0,64.0,29.38,North,360,0.0,12.0,32,0.00,,---,0.00,VWS V12.08,2013-07-18 18:11:00,
2013-07-18 14:16:00,99.0,63.1,29.37,North,360,0.0,12.0,31,0.00,,---,0.00,VWS V12.08,2013-07-18 18:16:00,
2013-07-18 14:21:00,99.4,63.5,29.37,North,360,1.0,12.0,31,0.00,,---,0.00,VWS V12.08,2013-07-18 18:21:00,
2013-07-18 14:26:00,99.9,62.9,29.37,North,360,2.0,12.0,30,0.00,,---,0.00,VWS V12.08,2013-07-18 18:26:00,
2013-07-18 14:31:00,99.2,63.3,29.37,North,360,0.0,4.0,31,0.00,,---,0.00,VWS V12.08,2013-07-18 18:31:00,
2013-07-18 14:36:00,99.2,62.3,29.37,North,360,4.0,6.0,30,0.00,,---,0.00,VWS V12.08,2013-07-18 18:36:00,
2013-07-18 14:41:00,99.4,60.6,29.37,North,360,3.0,6.0,28,0.00,,---,0.00,VWS V12.08,2013-07-18 18:41:00,
2013-07-18 14:46:00,99.2,60.4,29.37,North,360,5.0,17.0,28,0.00,,---,0.00,VWS V12.08,2013-07-18 18:46:00,
2013-07-18 14:51:00,99.2,62.3,29.37,North,360,2.0,17.0,30,0.00,,---,0.00,VWS V12.08,2013-07-18 18:51:00,
2013-07-18 14:56:00,99.2,62.3,29.37,North,5,0.0,17.0,30,0.00,,---,0.00,VWS V12.08,2013-07-18 18:56:00,
2013-07-18 15:01:00,99.7,59.8,29.36,North,360,1.0,6.0,27,0.00,,---,0.00,VWS V12.08,2013-07-18 19:01:00,
2013-07-18 15:06:00,99.9,61.0,29.36,North,360,1.0,6.0,28,0.00,,---,0.00,VWS V12.08,2013-07-18 19:06:00,
2013-07-18 15:11:00,99.7,60.8,29.36,North,360,2.0,6.0,28,0.00,,---,0.00,VWS V12.08,2013-07-18 19:11:00,
2013-07-18 15:16:00,99.7,59.8,29.36,North,360,2.0,6.0,27,0.00,,---,0.00,VWS V12.08,2013-07-18 19:16:00,
2013-07-18 15:21:00,99.7,61.8,29.36,North,360,2.0,9.0,29,0.00,,---,0.00,VWS V12.08,2013-07-18 19:21:00,
2013-07-18 15:26:00,99.7,59.8,29.36,North,360,1.0,9.0,27,0.00,,---,0.00,VWS V12.08,2013-07-18 19:26:00,
2013-07-18 15:31:00,99.9,60.0,29.36,North,360,0.0,6.0,27,0.00,,---,0.00,VWS V12.08,2013-07-18 19:31:00,
2013-07-18 15:36:00,99.4,61.5,29.36,North,360,2.0,10.0,29,0.00,,---,0.00,VWS V12.08,2013-07-18 19:36:00,
2013-07-18 15:41:00,99.2,62.3,29.36,North,360,7.0,10.0,30,0.00,,---,0.00,VWS V12.08,2013-07-18 19:41:00,
2013-07-18 15:46:00,99.4,61.5,29.36,North,360,0.0,10.0,29,0.00,,---,0.00,VWS V12.08,2013-07-18 19:46:00,
2013-07-18 15:49:00,99.4,61.5,29.36,North,360,0.0,10.0,29,0.00,,---,0.00,VWS V12.08,2013-07-18 19:49:00,
2013-07-18 15:54:00,99.9,60.0,29.36,North,360,0.0,10.0,27,0.00,,---,0.00,VWS V12.08,2013-07-18 19:54:00,
2013-07-18 15:59:00,99.9,61.0,29.35,South,173,2.0,3.0,28,0.00,,---,0.00,VWS V12.08,2013-07-18 19:59:00,
2013-07-18 16:04:00,99.7,59.8,29.35,North,360,1.0,4.0,27,0.00,,---,0.00,VWS V12.08,2013-07-18 20:04:00,
2013-07-18 16:09:00,99.7,60.8,29.35,North,360,1.0,9.0,28,0.00,,---,0.00,VWS V12.08,2013-07-18 20:09:00,
2013-07-18 16:14:00,99.7,60.8,29.34,North,360,0.0,9.0,28,0.00,,---,0.00,VWS V12.08,2013-07-18 20:14:00,
2013-07-18 16:19:00,99.7,60.8,29.34,North,360,6.0,9.0,28,0.00,,---,0.00,VWS V12.08,2013-07-18 20:19:00,
2013-07-18 16:24:00,99.2,61.4,29.34,North,360,0.0,10.0,29,0.00,,---,0.00,VWS V12.08,2013-07-18 20:24:00,
2013-07-18 16:29:00,99.2,61.4,29.34,North,360,2.0,6.0,29,0.00,,---,0.00,VWS V12.08,2013-07-18 20:29:00,
2013-07-18 16:34:00,99.4,60.6,29.34,North,360,2.0,6.0,28,0.00,,---,0.00,VWS V12.08,2013-07-18 20:34:00,
2013-07-18 16:39:00,99.2,60.4,29.34,North,360,4.0,6.0,28,0.00,,---,0.00,VWS V12.08,2013-07-18 20:39:00,
2013-07-18 16:44:00,99.0,61.2,29.34,North,360,0.0,6.0,29,0.00,,---,0.00,VWS V12.08,2013-07-18 20:44:00,
2013-07-18 16:49:00,99.0,60.2,29.34,North,360,0.0,6.0,28,0.00,,---,0.00,VWS V12.08,2013-07-18 20:49:00,
2013-07-18 16:54:00,98.7,59.0,29.34,North,360,2.0,6.0,27,0.00,,---,0.00,VWS V12.08,2013-07-18 20:54:00,
2013-07-18 16:59:00,98.5,59.8,29.34,North,360,0.0,4.0,28,0.00,,---,0.00,VWS V12.08,2013-07-18 20:59:00,
2013-07-18 17:04:00,99.0,60.2,29.34,North,360,2.0,4.0,28,0.00,,---,0.00,VWS V12.08,2013-07-18 21:04:00,
2013-07-18 17:09:00,99.2,60.4,29.34,North,360,1.0,5.0,28,0.00,,---,0.00,VWS V12.08,2013-07-18 21:09:00,
2013-07-18 17:14:00,99.4,60.6,29.33,North,360,6.0,6.0,28,0.00,,---,0.00,VWS V12.08,2013-07-18 21:14:00,
2013-07-18 17:19:00,99.0,61.2,29.33,North,360,0.0,9.0,29,0.00,,---,0.00,VWS V12.08,2013-07-18 21:19:00,
2013-07-18 17:24:00,99.0,61.2,29.33,ENE,65,0.0,9.0,29,0.00,,---,0.00,VWS V12.08,2013-07-18 21:24:00,
2013-07-18 17:30:00,99.0,62.2,29.33,North,360,0.0,7.0,30,0.00,,---,0.00,VWS V12.08,2013-07-18 21:30:00,
2013-07-18 17:35:00,98.2,62.4,29.33,North,360,0.0,7.0,31,0.00,,---,0.00,VWS V12.08,2013-07-18 21:35:00,
2013-07-18 17:40:00,98.2,61.5,29.33,North,360,8.0,8.0,30,0.00,,---,0.00,VWS V12.08,2013-07-18 21:40:00,
2013-07-18 17:45:00,98.2,61.5,29.33,North,360,0.0,8.0,30,0.00,,---,0.00,VWS V12.08,2013-07-18 21:45:00,
2013-07-18 17:50:00,98.0,61.3,29.33,North,360,0.0,8.0,30,0.00,,---,0.00,VWS V12.08,2013-07-18 21:50:00,
2013-07-18 17:55:00,98.0,62.2,29.33,North,360,1.0,8.0,31,0.00,,---,0.00,VWS V12.08,2013-07-18 21:55:00,
2013-07-18 18:00:00,98.0,62.2,29.33,North,360,0.0,6.0,31,0.00,,---,0.00,VWS V12.08,2013-07-18 22:00:00,
2013-07-18 18:05:00,97.8,62.1,29.33,North,360,1.0,6.0,31,0.00,,---,0.00,VWS V12.08,2013-07-18 22:05:00,
2013-07-18 18:10:00,97.5,61.8,29.33,North,360,1.0,6.0,31,0.00,,---,0.00,VWS V12.08,2013-07-18 22:10:00,
2013-07-18 18:11:00,97.5,61.8,29.33,North,360,0.0,6.0,31,0.00,,---,0.00,VWS V12.08,2013-07-18 22:11:00,
2013-07-18 18:16:00,97.3,62.5,29.33,North,360,0.0,6.0,32,0.00,,---,0.00,VWS V12.08,2013-07-18 22:16:00,
2013-07-18 18:21:00,97.3,62.5,29.33,North,360,2.0,11.0,32,0.00,,---,0.00,VWS V12.08,2013-07-18 22:21:00,
2013-07-18 18:26:00,97.1,63.2,29.33,North,360,0.0,11.0,33,0.00,,---,0.00,VWS V12.08,2013-07-18 22:26:00,
2013-07-18 18:32:00,97.1,63.2,29.33,North,360,1.0,4.0,33,0.00,,---,0.00,VWS V12.08,2013-07-18 22:32:00,
2013-07-18 18:37:00,97.1,64.1,29.33,North,360,0.0,4.0,34,0.00,,---,0.00,VWS V12.08,2013-07-18 22:37:00,
2013-07-18 18:42:00,97.1,64.1,29.33,North,360,6.0,7.0,34,0.00,,---,0.00,VWS V12.08,2013-07-18 22:42:00,
2013-07-18 18:47:00,96.8,63.8,29.33,North,360,1.0,11.0,34,0.00,,---,0.00,VWS V12.08,2013-07-18 22:47:00,
2013-07-18 18:52:00,96.8,63.8,29.33,North,360,2.0,11.0,34,0.00,,---,0.00,VWS V12.08,2013-07-18 22:52:00,
2013-07-18 18:57:00,96.6,63.7,29.34,North,360,0.0,11.0,34,0.00,,---,0.00,VWS V12.08,2013-07-18 22:57:00,
2013-07-18 19:02:00,96.1,64.0,29.34,North,360,4.0,4.0,35,0.00,,---,0.00,VWS V12.08,2013-07-18 23:02:00,
2013-07-18 19:07:00,95.9,64.7,29.34,North,360,3.0,6.0,36,0.00,,---,0.00,VWS V12.08,2013-07-18 23:07:00,
2013-07-18 19:12:00,95.4,64.2,29.34,North,360,3.0,10.0,36,0.00,,---,0.00,VWS V12.08,2013-07-18 23:12:00,
2013-07-18 19:17:00,95.1,64.0,29.34,North,360,2.0,10.0,36,0.00,,---,0.00,VWS V12.08,2013-07-18 23:17:00,
2013-07-18 19:22:00,94.9,63.8,29.34,North,360,1.0,10.0,36,0.00,,---,0.00,VWS V12.08,2013-07-18 23:22:00,
2013-07-18 19:27:00,94.9,63.8,29.34,North,360,1.0,10.0,36,0.00,,---,0.00,VWS V12.08,2013-07-18 23:27:00,
2013-07-18 19:32:00,94.7,64.4,29.34,North,360,1.0,3.0,37,0.00,,---,0.00,VWS V12.08,2013-07-18 23:32:00,
2013-07-18 19:37:00,94.5,64.2,29.34,ESE,117,0.0,3.0,37,0.00,,---,0.00,VWS V12.08,2013-07-18 23:37:00,
2013-07-18 19:42:00,94.3,64.1,29.34,North,360,2.0,3.0,37,0.00,,---,0.00,VWS V12.08,2013-07-18 23:42:00,
2013-07-18 19:47:00,94.3,64.1,29.34,North,360,0.0,7.0,37,0.00,,---,0.00,VWS V12.08,2013-07-18 23:47:00,
2013-07-18 19:52:00,94.3,64.8,29.34,North,360,2.0,7.0,38,0.00,,---,0.00,VWS V12.08,2013-07-18 23:52:00,
2013-07-18 19:58:00,94.0,63.8,29.34,North,360,0.0,7.0,37,0.00,,---,0.00,VWS V12.08,2013-07-18 23:58:00,
2013-07-18 20:03:00,93.8,64.4,29.34,North,360,1.0,5.0,38,0.00,,---,0.00,VWS V12.08,2013-07-19 00:03:00,
2013-07-18 20:08:00,93.8,65.1,29.34,North,360,3.0,5.0,39,0.00,,---,0.00,VWS V12.08,2013-07-19 00:08:00,
2013-07-18 20:13:00,93.6,64.2,29.35,North,360,2.0,5.0,38,0.00,,---,0.00,VWS V12.08,2013-07-19 00:13:00,
2013-07-18 20:19:00,93.6,64.9,29.35,SSW,207,0.0,5.0,39,0.00,,---,0.00,VWS V12.08,2013-07-19 00:19:00,
2013-07-18 20:24:00,93.4,64.8,29.35,North,360,0.0,5.0,39,0.00,,---,0.00,VWS V12.08,2013-07-19 00:24:00,
2013-07-18 20:29:00,93.4,64.8,29.35,North,360,2.0,2.0,39,0.00,,---,0.00,VWS V12.08,2013-07-19 00:29:00,
2013-07-18 20:34:00,93.2,66.0,29.35,North,360,0.0,3.0,41,0.00,,---,0.00,VWS V12.08,2013-07-19 00:34:00,
2013-07-18 20:39:00,93.2,65.3,29.35,North,360,4.0,4.0,40,0.00,,---,0.00,VWS V12.08,2013-07-19 00:39:00,
2013-07-18 20:44:00,92.9,65.0,29.35,North,360,0.0,5.0,40,0.00,,---,0.00,VWS V12.08,2013-07-19 00:44:00,
2013-07-18 20:49:00,92.9,65.8,29.35,North,360,1.0,5.0,41,0.00,,---,0.00,VWS V12.08,2013-07-19 00:49:00,
2013-07-18 20:54:00,92.9,65.8,29.35,North,360,0.0,5.0,41,0.00,,---,0.00,VWS V12.08,2013-07-19 00:54:00,
2013-07-18 20:59:00,92.7,65.6,29.34,North,360,0.0,0.0,41,0.00,,---,0.00,VWS V12.08,2013-07-19 00:59:00,
2013-07-18 21:04:00,92.7,65.6,29.34,North,360,0.0,4.0,41,0.00,,---,0.00,VWS V12.08,2013-07-19 01:04:00,
2013-07-18 21:09:00,92.7,66.3,29.34,North,360,0.0,4.0,42,0.00,,---,0.00,VWS V12.08,2013-07-19 01:09:00,
2013-07-18 21:14:00,92.7,66.9,29.35,North,360,3.0,4.0,43,0.00,,---,0.00,VWS V12.08,2013-07-19 01:14:00,
2013-07-18 21:19:00,92.5,66.1,29.35,North,360,2.0,4.0,42,0.00,,---,0.00,VWS V12.08,2013-07-19 01:19:00,
2013-07-18 21:24:00,92.5,66.1,29.35,North,360,1.0,4.0,42,0.00,,---,0.00,VWS V12.08,2013-07-19 01:24:00,
2013-07-18 21:29:00,92.3,66.6,29.35,North,360,2.0,3.0,43,0.00,,---,0.00,VWS V12.08,2013-07-19 01:29:00,
2013-07-18 21:34:00,92.3,66.6,29.35,North,360,3.0,3.0,43,0.00,,---,0.00,VWS V12.08,2013-07-19 01:34:00,
2013-07-18 21:39:00,92.3,66.6,29.35,North,360,1.0,4.0,43,0.00,,---,0.00,VWS V12.08,2013-07-19 01:39:00,
2013-07-18 21:44:00,92.3,66.6,29.35,North,360,1.0,4.0,43,0.00,,---,0.00,VWS V12.08,2013-07-19 01:44:00,
2013-07-18 21:49:00,92.3,66.6,29.35,North,360,1.0,4.0,43,0.00,,---,0.00,VWS V12.08,2013-07-19 01:49:00,
2013-07-18 21:54:00,92.3,67.2,29.35,North,360,0.0,4.0,44,0.00,,---,0.00,VWS V12.08,2013-07-19 01:54:00,
2013-07-18 21:59:00,92.1,67.1,29.35,North,360,0.0,0.0,44,0.00,,---,0.00,VWS V12.08,2013-07-19 01:59:00,
2013-07-18 22:04:00,92.1,67.1,29.35,North,360,0.0,1.0,44,0.00,,---,0.00,VWS V12.08,2013-07-19 02:04:00,
2013-07-18 22:09:00,92.1,67.7,29.35,North,360,0.0,1.0,45,0.00,,---,0.00,VWS V12.08,2013-07-19 02:09:00,
2013-07-18 22:14:00,92.1,67.7,29.34,North,360,0.0,1.0,45,0.00,,---,0.00,VWS V12.08,2013-07-19 02:14:00,
2013-07-18 22:19:00,92.1,67.7,29.34,North,360,2.0,4.0,45,0.00,,---,0.00,VWS V12.08,2013-07-19 02:19:00,
2013-07-18 22:24:00,91.8,68.1,29.34,North,360,3.0,4.0,46,0.00,,---,0.00,VWS V12.08,2013-07-19 02:24:00,
2013-07-18 22:29:00,91.8,67.4,29.34,North,360,1.0,2.0,45,0.00,,---,0.00,VWS V12.08,2013-07-19 02:29:00,
2013-07-18 22:34:00,91.8,68.1,29.34,North,360,0.0,3.0,46,0.00,,---,0.00,VWS V12.08,2013-07-19 02:34:00,
2013-07-18 22:39:00,91.8,67.4,29.34,North,360,1.0,3.0,45,0.00,,---,0.00,VWS V12.08,2013-07-19 02:39:00,
2013-07-18 22:44:00,91.6,67.3,29.34,North,360,1.0,3.0,45,0.00,,---,0.00,VWS V12.08,2013-07-19 02:44:00,
2013-07-18 22:49:00,91.6,67.9,29.34,North,360,0.0,3.0,46,0.00,,---,0.00,VWS V12.08,2013-07-19 02:49:00,
2013-07-18 22:54:00,91.4,67.7,29.34,North,360,0.0,3.0,46,0.00,,---,0.00,VWS V12.08,2013-07-19 02:54:00,
2013-07-18 22:59:00,91.4,67.7,29.33,North,360,0.0,0.0,46,0.00,,---,0.00,VWS V12.08,2013-07-19 02:59:00,
2013-07-18 23:04:00,91.4,69.0,29.33,North,360,0.0,4.0,48,0.00,,---,0.00,VWS V12.08,2013-07-19 03:04:00,
2013-07-18 23:09:00,91.4,68.3,29.33,North,360,3.0,4.0,47,0.00,,---,0.00,VWS V12.08,2013-07-19 03:09:00,
2013-07-18 23:14:00,91.4,68.3,29.33,North,360,0.0,4.0,47,0.00,,---,0.00,VWS V12.08,2013-07-19 03:14:00,
2013-07-18 23:19:00,91.4,68.3,29.33,North,360,0.0,4.0,47,0.00,,---,0.00,VWS V12.08,2013-07-19 03:19:00,
2013-07-18 23:24:00,91.4,68.3,29.33,South,178,0.0,4.0,47,0.00,,---,0.00,VWS V12.08,2013-07-19 03:24:00,
2013-07-18 23:29:00,91.4,68.3,29.33,North,360,4.0,4.0,47,0.00,,---,0.00,VWS V12.08,2013-07-19 03:29:00,
2013-07-18 23:34:00,91.2,68.8,29.33,North,360,1.0,5.0,48,0.00,,---,0.00,VWS V12.08,2013-07-19 03:34:00,
2013-07-18 23:39:00,91.0,68.6,29.33,North,360,6.0,6.0,48,0.00,,---,0.00,VWS V12.08,2013-07-19 03:39:00,
2013-07-18 23:44:00,90.7,68.3,29.32,North,360,5.0,7.0,48,0.00,,---,0.00,VWS V12.08,2013-07-19 03:44:00,
2013-07-18 23:49:00,90.7,68.9,29.32,North,360,1.0,9.0,49,0.00,,---,0.00,VWS V12.08,2013-07-19 03:49:00,
2013-07-18 23:54:00,90.7,68.3,29.32,North,360,2.0,9.0,48,0.00,,---,0.00,VWS V12.08,2013-07-19 03:54:00,
2013-07-18 23:59:00,90.7,68.9,29.33,North,360,1.0,2.0,49,0.00,,---,0.00,VWS V12.08,2013-07-19 03:59:00,